DW9923 Weather Reports


Display with metric or nautical units.
time (UTC)temp
F
wind
direction
speed
MPH
gust
MPH
rain 1hr
in
rain 24hr
in
rain mn
in
humidity
%
barometer
mb
20260502194136 75 280 1.0 6.0 0.00 0.00 0.00 64
20260502193009 76 327 0.0 4.0 0.00 0.00 0.00 60
20260502192457 77 42 0.0 3.0 0.00 0.00 0.00 60
20260502191952 77 35 0.0 2.0 0.00 0.00 0.00 60
20260502191438 76 50 1.0 1.0 0.00 0.00 0.00 62
20260502190931 76 159 1.0 5.0 0.00 0.00 0.00 61
20260502185810 76 5 0.0 0.0 0.00 0.00 0.00 63
20260502185315 75 199 0.0 3.0 0.00 0.00 0.00 62
20260502184821 75 101 0.0 2.0 0.00 0.00 0.00 63
20260502184310 75 163 0.0 7.0 0.00 0.00 0.00 65
20260502183803 74 124 1.0 7.0 0.00 0.00 0.00 65
20260502182645 74 355 1.0 6.0 0.00 0.00 0.00 64
20260502182125 74 24 1.0 5.0 0.00 0.00 0.00 65
20260502181625 73 301 1.0 5.0 0.00 0.00 0.00 67
20260502181108 73 300 0.0 5.0 0.00 0.00 0.00 66
20260502180603 72 325 0.0 3.0 0.00 0.00 0.00 68
20260502170233 64 295 0.0 3.0 0.00 0.00 0.00 85
20260502164052 60 309 0.0 0.0 0.00 0.00 0.00 94
20260502163533 60 309 0.0 0.0 0.00 0.00 0.00 95
20260502163015 59 309 0.0 0.0 0.00 0.00 0.00 95
20260502162509 58 292 0.0 0.0 0.00 0.00 0.00 95
20260502162000 58 292 0.0 0.0 0.00 0.00 0.00 95
20260502161508 58 292 0.0 0.0 0.00 0.00 0.00 95
20260502161018 58 292 0.0 0.0 0.00 0.00 0.00 95
20260502160501 57 292 0.0 0.0 0.00 0.00 0.00 96
20260502152150 55 297 0.0 4.0 0.00 0.00 0.00 95
20260502151015 55 298 0.0 0.0 0.00 0.00 0.00 95
20260502150513 55 297 0.0 0.0 0.00 0.00 0.00 95
20260502130410 54 297 0.0 0.0 0.00 0.01 0.00 94
20260502123732 53 298 0.0 0.0 0.00 0.01 0.00 94
20260502123220 53 298 0.0 0.0 0.00 0.01 0.00 94
20260502122718 53 298 0.0 0.0 0.00 0.01 0.00 94
20260502122158 53 297 0.0 0.0 0.00 0.01 0.00 94
20260502121651 53 298 0.0 0.0 0.00 0.01 0.00 94
20260502121153 53 297 0.0 0.0 0.00 0.01 0.00 94
20260502120657 53 297 0.0 0.0 0.00 0.01 0.00 94
20260502120204 53 298 0.0 0.0 0.00 0.01 0.00 93
20260502115648 53 297 0.0 0.0 0.00 0.01 0.00 93
20260502115130 52 298 0.0 0.0 0.00 0.01 0.00 93
20260502114612 52 297 0.0 0.0 0.00 0.01 0.00 93
20260502114057 52 298 0.0 0.0 0.00 0.01 0.00 93
20260502113555 52 297 0.0 0.0 0.00 0.01 0.00 93
20260502113050 52 297 0.0 0.0 0.00 0.01 0.00 93
20260502112541 52 297 0.0 0.0 0.00 0.01 0.00 93
20260502112027 51 297 0.0 0.0 0.00 0.01 0.00 93
20260502111529 51 297 0.0 0.0 0.00 0.01 0.00 93
20260502111038 51 297 0.0 0.0 0.00 0.01 0.00 93
20260502110542 51 297 0.0 0.0 0.00 0.01 0.00 92
20260502105358 50 297 0.0 0.0 0.00 0.01 0.00 92
20260502104901 50 297 0.0 0.0 0.00 0.01 0.00 92
20260502104404 50 297 0.0 0.0 0.00 0.01 0.00 92
20260502103855 50 298 0.0 0.0 0.00 0.01 0.00 92
20260502102054 50 298 0.0 0.0 0.00 0.01 0.00 91
20260502100940 50 297 0.0 0.0 0.00 0.01 0.00 91
20260502100432 50 297 0.0 0.0 0.00 0.01 0.00 91
20260502090605 51 297 0.0 0.0 0.00 0.01 0.00 90
20260502090110 51 297 0.0 0.0 0.00 0.01 0.00 90
20260502071506 52 297 0.0 0.0 0.00 0.01 0.00 88
20260502070332 52 297 0.0 0.0 0.00 0.01 0.00 88
20260502065821 52 298 0.0 0.0 0.00 0.01 0.01 87
20260502065315 52 297 0.0 0.0 0.00 0.01 0.01 87
20260502064757 53 298 0.0 0.0 0.00 0.01 0.01 86
20260502064300 53 298 0.0 0.0 0.00 0.01 0.01 86
20260502063744 53 298 0.0 0.0 0.00 0.01 0.01 86
20260502063228 53 297 0.0 0.0 0.00 0.01 0.01 86
20260502062737 53 297 0.0 0.0 0.00 0.01 0.01 86
20260502062224 53 298 0.0 0.0 0.00 0.01 0.01 85
20260502061722 54 297 0.0 0.0 0.00 0.01 0.01 86
20260502061219 54 297 0.0 0.0 0.00 0.01 0.01 85
20260502060718 54 298 0.0 0.0 0.00 0.01 0.01 85
20260502060211 54 298 0.0 0.0 0.00 0.01 0.01 85
20260502055715 54 297 0.0 0.0 0.00 0.01 0.01 85
20260502055219 54 298 0.0 0.0 0.00 0.01 0.01 85
20260502054711 54 297 0.0 0.0 0.00 0.01 0.01 85
20260502054212 54 297 0.0 0.0 0.00 0.01 0.01 85
20260502053719 55 298 0.0 0.0 0.00 0.01 0.01 85
20260502053206 55 298 0.0 0.0 0.00 0.01 0.01 84
20260502052054 55 298 0.0 0.0 0.00 0.01 0.01 84
20260502050912 56 298 0.0 0.0 0.00 0.01 0.01 83
20260502050400 56 298 0.0 0.0 0.00 0.01 0.01 83
20260502045908 56 298 0.0 0.0 0.00 0.01 0.01 83
20260502044743 57 297 0.0 0.0 0.00 0.01 0.01 82
20260502044228 57 298 0.0 0.0 0.00 0.01 0.01 82
20260502043727 57 298 0.0 0.0 0.00 0.01 0.01 82
20260502043208 58 297 0.0 0.0 0.00 0.01 0.01 82
20260502042708 58 297 0.0 0.0 0.00 0.01 0.01 82
20260502042208 58 297 0.0 0.0 0.00 0.01 0.01 82
20260502041700 59 298 0.0 0.0 0.00 0.01 0.01 81
20260502041151 59 297 0.0 0.0 0.00 0.01 0.01 81
20260502040645 59 297 0.0 0.0 0.00 0.01 0.01 81
20260502040144 59 298 0.0 0.0 0.00 0.01 0.01 81
20260502035623 60 297 0.0 0.0 0.00 0.01 0.01 81
20260502035132 60 297 0.0 0.0 0.00 0.01 0.01 81
20260502034612 60 298 0.0 0.0 0.00 0.01 0.01 81
20260502034111 60 298 0.0 1.0 0.00 0.01 0.01 81
20260502033556 61 298 0.0 1.0 0.00 0.01 0.01 81
20260502033053 61 298 0.0 0.0 0.00 0.01 0.01 80
20260502032537 61 298 0.0 0.0 0.00 0.01 0.01 80
20260502032038 61 298 0.0 2.0 0.00 0.01 0.01 79
20260502031523 62 298 0.0 3.0 0.00 0.01 0.01 79
20260502031025 62 297 0.0 1.0 0.00 0.01 0.01 78
20260502030531 63 298 0.0 1.0 0.00 0.01 0.01 78
20260502030029 63 298 0.0 1.0 0.00 0.01 0.01 78
20260502025528 63 297 0.0 3.0 0.00 0.01 0.01 78
20260502024413 64 298 0.0 2.0 0.00 0.01 0.01 77
20260502023912 64 298 0.0 2.0 0.00 0.01 0.01 76
20260502022727 65 298 1.0 4.0 0.00 0.01 0.01 75
20260502022232 65 298 1.0 4.0 0.00 0.01 0.01 75
20260502021741 65 298 2.0 4.0 0.00 0.01 0.01 74
20260502021231 66 298 1.0 7.0 0.00 0.01 0.01 73
20260502020110 67 298 2.0 7.0 0.00 0.01 0.01 71
20260502015552 68 290 3.0 7.0 0.00 0.01 0.01 70
20260502015048 68 283 3.0 6.0 0.00 0.01 0.01 69
20260502014531 69 296 2.0 6.0 0.00 0.01 0.01 68
20260502014013 70 291 2.0 6.0 0.00 0.01 0.01 67
20260502012844 71 290 2.0 5.0 0.00 0.01 0.01 65
20260502012343 72 293 2.0 5.0 0.00 0.01 0.01 64
20260502011841 73 300 2.0 5.0 0.00 0.01 0.01 63
20260502011322 73 289 2.0 7.0 0.00 0.01 0.01 62
20260502010153 75 300 2.0 7.0 0.00 0.01 0.01 60
20260502005646 75 296 1.0 7.0 0.00 0.01 0.01 60
20260502005142 75 294 2.0 7.0 0.00 0.01 0.01 60
20260502004626 75 294 2.0 7.0 0.00 0.01 0.01 60
20260502004121 75 288 1.0 5.0 0.00 0.01 0.01 60
20260502003617 75 292 3.0 7.0 0.00 0.01 0.01 59
20260502003120 75 297 3.0 7.0 0.00 0.01 0.01 58
20260502002615 76 286 2.0 7.0 0.00 0.01 0.01 58
20260502002107 76 300 3.0 7.0 0.00 0.01 0.01 59
20260502001552 76 215 3.0 7.0 0.00 0.01 0.01 58
20260502001040 76 297 2.0 7.0 0.00 0.01 0.01 58
20260502000546 76 296 2.0 7.0 0.00 0.01 0.01 59
20260502000029 76 298 2.0 7.0 0.00 0.01 0.01 59
20260501234911 77 303 2.0 6.0 0.00 0.01 0.01 58
20260501234403 77 302 3.0 8.0 0.00 0.01 0.01 57
20260501233239 78 15 2.0 8.0 0.00 0.01 0.01 55
20260501232721 79 286 1.0 8.0 0.00 0.01 0.01 53
20260501232208 80 309 0.0 4.0 0.00 0.01 0.01 53
20260501231703 80 5 0.0 2.0 0.00 0.01 0.01 54
20260501230556 80 161 0.0 3.0 0.00 0.01 0.01 52
20260501230037 80 9 0.0 7.0 0.00 0.01 0.01 53
20260501225533 80 34 0.0 7.0 0.00 0.01 0.01 54
20260501225031 79 306 2.0 7.0 0.00 0.01 0.01 54
20260501224517 79 296 1.0 7.0 0.00 0.01 0.01 55
20260501224006 79 286 1.0 5.0 0.00 0.01 0.01 54
20260501222825 80 280 0.0 3.0 0.00 0.01 0.01 53
20260501222308 80 83 0.0 4.0 0.00 0.01 0.01 52
20260501221807 80 301 0.0 4.0 0.00 0.01 0.01 52
20260501220648 80 318 0.0 4.0 0.00 0.01 0.01 53
20260501220132 80 58 0.0 4.0 0.00 0.01 0.01 53
20260501215638 81 103 0.0 4.0 0.00 0.01 0.01 53
20260501215139 80 107 0.0 4.0 0.00 0.01 0.01 54
20260501214629 81 61 0.0 4.0 0.00 0.01 0.01 53
20260501214125 80 84 0.0 4.0 0.00 0.01 0.01 52
20260501213629 80 138 0.0 4.0 0.00 0.01 0.01 53
20260501213129 80 132 0.0 4.0 0.00 0.01 0.01 53
20260501212632 80 132 0.0 4.0 0.00 0.01 0.01 53
20260501212129 79 57 0.0 1.0 0.00 0.01 0.01 55
20260501211614 79 233 0.0 3.0 0.00 0.01 0.01 55
20260501211107 78 308 0.0 7.0 0.00 0.01 0.01 56
20260501210616 78 9 1.0 7.0 0.00 0.01 0.01 55
20260501210124 78 303 2.0 8.0 0.00 0.01 0.01 58
20260501205630 78 44 2.0 8.0 0.00 0.01 0.01 56
20260501205130 77 302 1.0 8.0 0.00 0.01 0.01 57
20260501204613 77 295 1.0 8.0 0.00 0.01 0.01 58
20260501204055 77 286 1.0 6.0 0.00 0.01 0.01 56
20260501203546 77 309 1.0 6.0 0.00 0.01 0.01 57
20260501203043 77 300 2.0 6.0 0.00 0.01 0.01 57
20260501202544 77 216 1.0 6.0 0.00 0.01 0.01 56
20260501202041 78 302 0.0 5.0 0.00 0.01 0.01 55
20260501201524 78 305 0.0 6.0 0.00 0.01 0.01 56
20260501201033 77 344 1.0 6.0 0.00 0.01 0.01 56
20260501200523 78 319 1.0 6.0 0.00 0.01 0.01 55
20260501200030 78 306 1.0 6.0 0.00 0.01 0.01 55
20260501195518 79 277 0.0 4.0 0.00 0.01 0.01 54
20260501195010 79 132 0.0 4.0 0.00 0.01 0.01 54
20260501194512 78 137 0.0 3.0 0.00 0.01 0.01 55